User: anonymous   Login
Location: Brno
(49.2000°N, 16.6330°E)
Time: 17:38:33
(UTC+02:00)
Language:

RESURS DK-1 - Orbit

View from above orbital plane
View from above orbital plane
View from above satellite
View from above satellite

Ground track
Ground track

The orbit data is extracted from the following two-line orbital elements,

1 29228U 06021A   15116.46947757  .00001573  00000-0  12902-3 0  9998
2 29228 069.9369 288.5213 0002028 133.8205 314.7901 15.01438633490585
Epoch (UTC): 26 April 2015 11:16:02
Eccentricity: 0.0002028
inclination: 69.9369°
perigee height: 561 km
apogee height: 564 km
right ascension of ascending node: 288.5213°
argument of perigee: 133.8205°
revolutions per day: 15.01438633
mean anomaly at epoch: 314.7901°
orbit number at epoch: 49058

The dashed part of the orbit path shows where the satellite is in the earth's shadow,  

DLR